| time (UTC) | temp F | wind direction | speed MPH | gust MPH | rain 1hr in | rain 24hr in | rain mn in | humidity % | barometer mb |
| 20260506010049 | 57 | 323 | 2.0 | 6.0 | 0.00 | 0.00 | 0.00 | 32 | 1004.5 |
| 20260506004550 | 56 | 340 | 2.0 | 7.0 | 0.00 | 0.00 | 0.00 | 32 | 1004.4 |
| 20260506003048 | 56 | 360 | 1.0 | 4.0 | 0.00 | 0.00 | 0.00 | 33 | 1004.3 |
| 20260506001607 | 56 | 360 | 1.0 | 8.0 | 0.00 | 0.00 | 0.00 | 32 | 1004.2 |
| 20260506000049 | 56 | 360 | 2.0 | 5.0 | 0.00 | 0.00 | 0.00 | 31 | 1004.0 |
| 20260505234550 | 56 | 360 | 1.0 | 6.0 | 0.00 | 0.00 | 0.00 | 30 | 1004.0 |
| 20260505233053 | 57 | 360 | 3.0 | 7.0 | 0.00 | 0.00 | 0.00 | 28 | 1004.0 |
| 20260505231551 | 58 | 325 | 2.0 | 10.0 | 0.00 | 0.00 | 0.00 | 28 | 1003.8 |
| 20260505230045 | 60 | 314 | 1.0 | 7.0 | 0.00 | 0.00 | 0.00 | 28 | 1003.8 |
| 20260505224547 | 61 | 306 | 4.0 | 11.0 | 0.00 | 0.00 | 0.00 | 27 | 1003.9 |
| 20260505223051 | 60 | 328 | 2.0 | 9.0 | 0.00 | 0.00 | 0.00 | 28 | 1003.9 |
| 20260505221549 | 61 | 317 | 4.0 | 10.0 | 0.00 | 0.00 | 0.00 | 28 | 1004.0 |
| 20260505220043 | 61 | 320 | 2.0 | 7.0 | 0.00 | 0.00 | 0.00 | 28 | 1004.2 |
| 20260505214556 | 61 | 329 | 2.0 | 11.0 | 0.00 | 0.00 | 0.00 | 28 | 1004.3 |
| 20260505213052 | 61 | 45 | 4.0 | 10.0 | 0.00 | 0.00 | 0.00 | 27 | 1004.4 |
| 20260505211538 | 60 | 350 | 4.0 | 12.0 | 0.00 | 0.00 | 0.00 | 27 | 1004.5 |
| 20260505210037 | 61 | 330 | 5.0 | 15.0 | 0.00 | 0.00 | 0.00 | 25 | 1004.5 |
| 20260505204538 | 60 | 329 | 3.0 | 12.0 | 0.00 | 0.00 | 0.00 | 26 | 1004.3 |
| 20260505203042 | 59 | 326 | 4.0 | 14.0 | 0.00 | 0.00 | 0.00 | 25 | 1004.4 |
| 20260505201546 | 59 | 318 | 3.0 | 13.0 | 0.00 | 0.00 | 0.00 | 26 | 1004.4 |
| 20260505200034 | 60 | 328 | 3.0 | 12.0 | 0.00 | 0.00 | 0.00 | 26 | 1004.4 |
| 20260505194534 | 60 | 319 | 4.0 | 11.0 | 0.00 | 0.00 | 0.00 | 26 | 1004.3 |
| 20260505193044 | 59 | 284 | 2.0 | 6.0 | 0.00 | 0.00 | 0.00 | 28 | 1004.3 |
| 20260505191536 | 59 | 304 | 4.0 | 10.0 | 0.00 | 0.00 | 0.00 | 26 | 1004.5 |
| 20260505190039 | 59 | 336 | 2.0 | 10.0 | 0.00 | 0.00 | 0.00 | 28 | 1004.4 |
| 20260505184530 | 59 | 311 | 2.0 | 5.0 | 0.00 | 0.00 | 0.00 | 30 | 1004.3 |
| 20260505183043 | 59 | 250 | 2.0 | 8.0 | 0.00 | 0.00 | 0.00 | 30 | 1004.5 |
| 20260505181529 | 59 | 340 | 2.0 | 10.0 | 0.00 | 0.00 | 0.00 | 32 | 1004.6 |
| 20260505180034 | 59 | 314 | 1.0 | 6.0 | 0.00 | 0.00 | 0.00 | 32 | 1004.7 |
| 20260505174530 | 57 | 323 | 1.0 | 8.0 | 0.00 | 0.00 | 0.00 | 33 | 1004.7 |
| 20260505173033 | 56 | 342 | 2.0 | 6.0 | 0.00 | 0.00 | 0.00 | 33 | 1004.7 |
| 20260505171527 | 55 | 16 | 2.0 | 8.0 | 0.00 | 0.00 | 0.00 | 36 | 1004.8 |
| 20260505170016 | 55 | 323 | 2.0 | 7.0 | 0.00 | 0.00 | 0.00 | 37 | 1004.9 |
| 20260505164528 | 53 | 337 | 2.0 | 9.0 | 0.00 | 0.00 | 0.00 | 41 | 1004.9 |
| 20260505163010 | 53 | 322 | 3.0 | 8.0 | 0.00 | 0.00 | 0.00 | 41 | 1004.9 |
| 20260505161506 | 52 | 320 | 3.0 | 9.0 | 0.00 | 0.00 | 0.00 | 46 | 1004.8 |
| 20260505153107 | 46 | 312 | 1.0 | 6.0 | 0.00 | 0.00 | 0.00 | 68 | 1005.0 |
| 20260505151555 | 43 | 321 | 1.0 | 5.0 | 0.00 | 0.00 | 0.00 | 75 | 1005.3 |
| 20260505150112 | 41 | 342 | 1.0 | 4.0 | 0.00 | 0.00 | 0.00 | 77 | 1005.6 |
| 20260505140104 | 33 | 248 | 0.0 | 1.0 | 0.00 | 0.00 | 0.00 | 92 | 1005.8 |
| 20260505124543 | 32 | 248 | 0.0 | 0.0 | 0.00 | 0.00 | 0.00 | 88 | 1005.2 |
| 20260505123104 | 32 | 248 | 0.0 | 0.0 | 0.00 | 0.00 | 0.00 | 87 | 1005.1 |
| 20260505121540 | 33 | 248 | 0.0 | 1.0 | 0.00 | 0.00 | 0.00 | 86 | 1005.2 |
| 20260505120047 | 33 | 248 | 0.0 | 0.0 | 0.00 | 0.00 | 0.00 | 85 | 1005.2 |
| 20260505114545 | 34 | 248 | 0.0 | 1.0 | 0.00 | 0.00 | 0.00 | 83 | 1005.1 |
| 20260505113032 | 35 | 248 | 0.0 | 0.0 | 0.00 | 0.00 | 0.00 | 82 | 1005.0 |
| 20260505111531 | 35 | 248 | 0.0 | 0.0 | 0.00 | 0.00 | 0.00 | 82 | 1005.0 |
| 20260505101523 | 36 | 213 | 0.0 | 1.0 | 0.00 | 0.00 | 0.00 | 79 | 1004.7 |
| 20260505100029 | 37 | 212 | 0.0 | 2.0 | 0.00 | 0.00 | 0.00 | 76 | 1004.5 |
| 20260505094519 | 37 | 320 | 0.0 | 1.0 | 0.00 | 0.00 | 0.00 | 76 | 1004.4 |
| 20260505093016 | 38 | 319 | 0.0 | 0.0 | 0.00 | 0.00 | 0.00 | 73 | 1004.4 |
| 20260505091513 | 39 | 319 | 0.0 | 3.0 | 0.00 | 0.00 | 0.00 | 71 | 1004.4 |
| 20260505090010 | 41 | 329 | 0.0 | 1.0 | 0.00 | 0.00 | 0.00 | 69 | 1004.5 |
| 20260505084514 | 41 | 329 | 0.0 | 1.0 | 0.00 | 0.00 | 0.00 | 67 | 1004.6 |
| 20260505083011 | 41 | 327 | 0.0 | 1.0 | 0.00 | 0.00 | 0.00 | 67 | 1004.7 |
| 20260505081508 | 41 | 327 | 0.0 | 1.0 | 0.00 | 0.00 | 0.00 | 66 | 1004.8 |
| 20260505080005 | 41 | 327 | 0.0 | 1.0 | 0.00 | 0.00 | 0.00 | 66 | 1004.8 |
| 20260505074504 | 42 | 355 | 0.0 | 1.0 | 0.00 | 0.00 | 0.00 | 64 | 1004.8 |
| 20260505073000 | 42 | 345 | 0.0 | 0.0 | 0.00 | 0.00 | 0.00 | 63 | 1004.8 |
| 20260505071559 | 43 | 345 | 0.0 | 2.0 | 0.00 | 0.00 | 0.00 | 59 | 1004.9 |
| 20260505070058 | 44 | 317 | 0.0 | 1.0 | 0.00 | 0.00 | 0.00 | 59 | 1004.8 |
| 20260505064553 | 44 | 317 | 0.0 | 1.0 | 0.00 | 0.00 | 0.00 | 58 | 1004.7 |
| 20260505063053 | 45 | 317 | 0.0 | 2.0 | 0.00 | 0.00 | 0.00 | 57 | 1004.6 |
| 20260505061548 | 46 | 317 | 0.0 | 2.0 | 0.00 | 0.00 | 0.00 | 54 | 1004.5 |
| 20260505060044 | 47 | 318 | 1.0 | 3.0 | 0.00 | 0.00 | 0.00 | 52 | 1004.4 |
| 20260505054544 | 47 | 360 | 0.0 | 1.0 | 0.00 | 0.00 | 0.00 | 51 | 1004.1 |
| 20260505053044 | 48 | 43 | 0.0 | 1.0 | 0.00 | 0.00 | 0.00 | 50 | 1003.9 |
| 20260505051542 | 48 | 47 | 0.0 | 1.0 | 0.00 | 0.00 | 0.00 | 50 | 1004.0 |
| 20260505050118 | 48 | 47 | 0.0 | 1.0 | 0.00 | 0.00 | 0.00 | 49 | 1004.1 |
| 20260505041552 | 50 | 65 | 0.0 | 1.0 | 0.00 | 0.00 | 0.00 | 45 | 1003.7 |
| 20260505040052 | 51 | 360 | 0.0 | 1.0 | 0.00 | 0.00 | 0.00 | 42 | 1003.6 |
| 20260505034540 | 52 | 360 | 0.0 | 1.0 | 0.00 | 0.00 | 0.00 | 40 | 1003.3 |
| 20260505033045 | 54 | 338 | 0.0 | 2.0 | 0.00 | 0.00 | 0.00 | 38 | 1003.0 |
| 20260505031545 | 55 | 360 | 0.0 | 4.0 | 0.00 | 0.00 | 0.00 | 36 | 1002.8 |
| 20260505030042 | 56 | 333 | 2.0 | 4.0 | 0.00 | 0.00 | 0.00 | 32 | 1002.5 |
| 20260505024538 | 58 | 333 | 0.0 | 4.0 | 0.00 | 0.00 | 0.00 | 31 | 1002.5 |
| 20260505023044 | 59 | 319 | 0.0 | 5.0 | 0.00 | 0.00 | 0.00 | 28 | 1002.3 |
| 20260505021541 | 61 | 331 | 1.0 | 4.0 | 0.00 | 0.00 | 0.00 | 27 | 1002.2 |
| 20260505020038 | 62 | 351 | 1.0 | 7.0 | 0.00 | 0.00 | 0.00 | 26 | 1002.1 |
| 20260505014556 | 63 | 341 | 1.0 | 5.0 | 0.00 | 0.00 | 0.00 | 26 | 1002.3 |
| 20260505013039 | 63 | 309 | 2.0 | 10.0 | 0.00 | 0.00 | 0.00 | 25 | 1002.4 |
| 20260505011534 | 63 | 323 | 3.0 | 7.0 | 0.00 | 0.00 | 0.00 | 25 | 1002.5 |